User: anonymous   Login
Location: Darlington Observatory
(36.4817°N, 105.8156°W)
Time: 04:32:42
(UTC-06:00)
Language:

MOS 1 - Orbit

View from above orbital plane
View from above orbital plane
View from above satellite
View from above satellite

Ground track
Ground track

The orbit data is extracted from the following two-line orbital elements,

1 17527U 87018A   16209.13009602 -.00000233  00000-0 -12120-3 0  9994
2 17527  99.2701 211.7642 0009924 102.1684 299.1157 14.02459872503892
Epoch (UTC): 27 July 2016 03:07:20
Eccentricity: 0.0009924
inclination: 99.2701°
perigee height: 878 km
apogee height: 892 km
right ascension of ascending node: 211.7642°
argument of perigee: 102.1684°
revolutions per day: 14.02459872
mean anomaly at epoch: 299.1157°
orbit number at epoch: 50389

The dashed part of the orbit path shows where the satellite is in the earth's shadow,  

DLR